Weather History for YTEF - November, 2012

Change the Weather History Date:

Wednesday, November 7, 2012

  Actual Average Record
Temperature  
Mean Temperature 82 °F -  
Max Temperature 101 °F - - ()
Min Temperature 64 °F - - ()
Cooling Degree Days 18    
Growing Degree Days 32 (Base 50)    
Moisture  
Dew Point 30 °F    
Average Humidity 12    
Maximum Humidity 30    
Minimum Humidity 4    
Precipitation  
Precipitation 0.00 in - - ()
Sea Level Pressure  
Sea Level Pressure 29.80 in    
Wind  
Wind Speed 11 mph ()    
Max Wind Speed 20 mph    
Max Gust Speed -    
T = Trace of Precipitation, MM = Missing Value Source: Averaged Metar Reports

Daily Weather History Graph

Daily Weather History Graph

Search for Another Location

Airport or City:

Trip Planner

Search our weather history database for the weather conditions in past years. The results will help you decide how hot, cold, wet, or windy it might be!

Date:

Astronomy

Nov. 07, 2012 Rise Set
Actual Time 5:04 AM AWST 6:05 PM AWST
Civil Twilight 4:40 AM AWST 6:29 PM AWST
Nautical Twilight 4:12 AM AWST 6:56 PM AWST
Astronomical Twilight 3:44 AM AWST 7:25 PM AWST
Moon No Moon Rise 11:35 AM AWST (11/7)
Length of Visible Light 13h 48m
Length of Day
13h 01m
Waning Gibbous, 48% of the Moon is Illuminated
Nov 7
Waning Gibbous
Nov 14
New
Nov 20
First Quarter
Nov 28
Full
Dec 6
Last Quarter

Hourly Weather History & Observations

Time (AWST) Temp. Dew Point Humidity Pressure Visibility Wind Dir Wind Speed Gust Speed Precip Events Conditions
12:00 AM 81 °F 33 °F 9% 29.75 in - South 12.7 mph - -  
12:00 AM 80.6 °F 33.8 °F 18% 29.80 in - South 12.7 mph - N/A   Unknown
1:00 AM 77.0 °F 33.8 °F 21% 29.80 in - SSE 10.4 mph - N/A   Unknown
2:00 AM 79 °F 33 °F 10% 29.73 in - SSE 16.1 mph - -  
2:00 AM 78.8 °F 33.8 °F 20% 29.77 in - SSE 16.1 mph - N/A   Unknown
3:00 AM 76 °F 33 °F 12% 29.75 in - SSE 15.0 mph - -  
3:00 AM 77.0 °F 33.8 °F 21% 29.80 in - SSE 15.0 mph - N/A   Unknown
4:00 AM 71.6 °F 32.0 °F 23% 29.83 in - SSE 10.4 mph - N/A   Unknown
5:00 AM 65 °F 32 °F 18% 29.79 in - ESE 5.8 mph - -  
5:00 AM 64.4 °F 32.0 °F 30% 29.86 in - ESE 5.8 mph - N/A   Unknown
6:00 AM 73 °F 33 °F 13% 29.81 in - SSE 12.7 mph - -  
6:00 AM 73.4 °F 32.0 °F 22% 29.86 in - SSE 12.7 mph - N/A   Unknown
7:00 AM 80.6 °F 30.2 °F 16% 29.86 in - SE 15.0 mph - N/A   Unknown
8:00 AM 84 °F 30 °F 7% 29.83 in - SE 19.6 mph - -  
8:00 AM 84.2 °F 30.2 °F 14% 29.89 in - SE 19.6 mph - N/A   Unknown
9:00 AM 89 °F 27 °F 5% 29.84 in - ESE 17.3 mph - -  
9:00 AM 87.8 °F 26.6 °F 11% 29.89 in - ESE 17.3 mph - N/A   Unknown
10:00 AM 93.2 °F 28.4 °F 10% 29.89 in - ESE 15.0 mph - N/A   Unknown
11:00 AM 94 °F 27 °F 4% 29.80 in - South 12.7 mph - -  
11:00 AM 95.0 °F 26.6 °F 9% 29.86 in - South 12.7 mph - N/A   Unknown
12:00 PM 98 °F 29 °F 4% 29.78 in - SSE 12.7 mph - -  
12:00 PM 98.6 °F 30.2 °F 9% 29.83 in - SSE 12.7 mph - N/A   Unknown
1:00 PM 96.8 °F 28.4 °F 9% 29.80 in - SSE 6.9 mph - N/A   Unknown
2:00 PM 98 °F 29 °F 4% 29.72 in - WSW 5.8 mph - -  
2:00 PM 98.6 °F 30.2 °F 9% 29.77 in - WSW 5.8 mph - N/A   Unknown
3:00 PM 100 °F 28 °F 4% 29.70 in - WNW 8.1 mph - -  
3:00 PM 100.4 °F 28.4 °F 8% 29.77 in - WNW 8.1 mph - N/A   Unknown
4:00 PM 98.6 °F 28.4 °F 8% 29.74 in - SW 11.5 mph - N/A   Unknown
5:00 PM 97 °F 26 °F 4% 29.70 in - SW 8.1 mph - -  
5:00 PM 96.8 °F 26.6 °F 8% 29.74 in - SW 8.1 mph - N/A   Unknown
6:00 PM 95 °F 27 °F 4% 29.72 in - SSW 8.1 mph - -  
6:00 PM 95.0 °F 26.6 °F 9% 29.77 in - SSW 8.1 mph - N/A   Unknown
7:00 PM 91.4 °F 32.0 °F 12% 29.80 in - South 9.2 mph - N/A   Unknown
8:00 PM 88 °F 31 °F 6% 29.76 in - South 10.4 mph - -  
8:00 PM 87.8 °F 30.2 °F 13% 29.80 in - South 10.4 mph - N/A   Unknown
9:00 PM 85 °F 31 °F 7% 29.77 in - SSE 10.4 mph - -  
9:00 PM 86.0 °F 30.2 °F 13% 29.83 in - SSE 10.4 mph - N/A   Unknown
10:00 PM 80.6 °F 30.2 °F 16% 29.83 in - ESE 10.4 mph - N/A   Unknown
11:00 PM 79 °F 31 °F 9% 29.76 in - SE 8.1 mph - -  
11:00 PM 78.8 °F 30.2 °F 17% 29.83 in - SE 8.1 mph - N/A   Unknown